Change the Weather History Date:

Sunday, December 15, 2013

  Actual Average Record
Temperature  
Mean Temperature 31 °F 35 °F  
Max Temperature 38 °F 41 °F 66 °F (1975)
Min Temperature 23 °F 28 °F -2 °F (1874)
Degree Days  
Heating Degree Days 34 30  
Month to date heating degree days 458 415  
Since 1 July heating degree days 1474 1470  
Cooling Degree Days 0 0  
Month to date cooling degree days 0 0  
Year to date cooling degree days 920 747  
Moisture  
Dew Point 27 °F    
Average Humidity 82    
Maximum Humidity 100    
Minimum Humidity 63    
Precipitation  
Precipitation 0.64 in 0.13 in 1.51 in (1981)
Month to date precipitation 2.03 1.93  
Year to date precipitation 37.77 41.92  
Sea Level Pressure  
Sea Level Pressure 29.62 in    
Wind  
Wind Speed 19 mph (NNW)    
Max Wind Speed 41 mph    
Max Gust Speed 52 mph    
Visibility 4 miles    
Events Fog , Rain , Snow    
T = Trace of Precipitation, MM = Missing Value Source: NWS Daily Summary

Daily Weather History Graph

Daily Weather History Graph

Search for Another Location

Airport or City:

Trip Planner

Search our weather history database for the weather conditions in past years. The results will help you decide how hot, cold, wet, or windy it might be!

Date:

Astronomy

Dec. 15, 2013 Rise Set
Actual Time 7:06 AM EST 4:12 PM EST
Civil Twilight 6:34 AM EST 4:44 PM EST
Nautical Twilight 5:59 AM EST 5:19 PM EST
Astronomical Twilight 5:24 AM EST 5:53 PM EST
Moon 3:15 PM EST (12/15) 5:18 AM EST (12/15)
Length of Visible Light 10h 09m
Length of Day
9h 05m
Waxing Gibbous, 97% of the Moon is Illuminated
Dec 15
Waxing Gibbous
Dec 17
Full
Dec 25
Last Quarter
Jan 1
New
Jan 7
First Quarter

Hourly Weather History & Observations

Time (EST) Temp. Windchill Dew Point Humidity Pressure Visibility Wind Dir Wind Speed Gust Speed Precip Events Conditions
12:54 AM 30.9 °F 16.7 °F 30.0 °F 96% 30.09 in 0.5 mi East 27.6 mph 36.8 mph 0.07 in Fog , Snow Snow
1:19 AM 32.0 °F 17.9 °F 30.2 °F 93% 30.06 in 1.0 mi ESE 28.8 mph 36.8 mph 0.02 in Snow Light Snow
1:54 AM 32.0 °F 17.4 °F 30.9 °F 96% 30.00 in 1.0 mi East 31.1 mph 35.7 mph 0.04 in Snow Light Snow
2:10 AM 33.8 °F 20.1 °F 30.2 °F 87% 29.98 in 1.0 mi East 29.9 mph 41.4 mph 0.00 in Snow Light Snow
2:37 AM 33.8 °F 21.0 °F 30.2 °F 87% 29.96 in 1.0 mi East 25.3 mph 34.5 mph 0.05 in Snow Light Snow
2:54 AM 33.1 °F 19.3 °F 30.9 °F 92% 29.93 in 1.2 mi East 28.8 mph - 0.05 in Rain , Snow Light Snow
3:20 AM 33.8 °F 21.3 °F 32.0 °F 93% 29.88 in 1.2 mi East 24.2 mph 35.7 mph 0.02 in Snow Light Snow
3:32 AM 33.8 °F 20.8 °F 32.0 °F 93% 29.85 in 1.5 mi East 26.5 mph 35.7 mph 0.04 in Snow Light Snow
3:54 AM 33.1 °F 19.3 °F 32.0 °F 96% 29.80 in 1.5 mi East 28.8 mph 40.3 mph 0.05 in Rain , Snow Light Snow
4:13 AM 33.8 °F 20.8 °F 32.0 °F 93% 29.78 in 1.5 mi East 26.5 mph 35.7 mph 0.05 in Rain , Snow Ice Pellets
4:54 AM 34.0 °F 19.9 °F 32.7 °F 95% 29.69 in 1.5 mi East 32.2 mph 38.0 mph 0.12 in Rain Heavy Ice Pellets
5:13 AM 33.8 °F 20.1 °F 32.0 °F 93% 29.66 in 1.5 mi ENE 29.9 mph 38.0 mph 0.06 in Rain Ice Pellets
5:35 AM 35.6 °F 22.5 °F 35.6 °F 100% 29.65 in 1.5 mi ENE 29.9 mph 36.8 mph 0.12 in Rain Rain
5:54 AM 36.0 °F 23.2 °F 34.9 °F 96% 29.62 in 1.5 mi ENE 28.8 mph 38.0 mph 0.16 in Rain Rain
6:54 AM 37.9 °F 28.5 °F 37.4 °F 98% 29.55 in 1.5 mi NNE 17.3 mph 33.4 mph 0.11 in Snow Light Snow
7:03 AM 37.4 °F 25.2 °F 37.4 °F 100% 29.52 in 1.5 mi NNE 28.8 mph 32.2 mph 0.01 in Snow Light Snow
7:54 AM 36.0 °F 22.2 °F 34.0 °F 93% 29.40 in 1.5 mi NE 34.5 mph 42.6 mph 0.04 in Snow Light Snow
8:01 AM 35.6 °F 22.1 °F 35.6 °F 100% 29.39 in 1.5 mi NE 32.2 mph 42.6 mph 0.00 in Snow Light Snow
8:12 AM 35.6 °F 20.6 °F 33.8 °F 93% 29.39 in 2.5 mi NNE 41.4 mph 51.8 mph 0.00 in Rain Light Rain
8:22 AM 35.6 °F 24.0 °F 35.6 °F 100% 29.40 in 2.5 mi NNE 23.0 mph 43.7 mph 0.00 in Rain Light Rain
8:30 AM 37.4 °F 26.6 °F 37.4 °F 100% 29.41 in 1.5 mi North 21.9 mph 29.9 mph 0.00 in Snow Light Snow
8:54 AM 36.0 °F 26.0 °F 35.1 °F 97% 29.42 in 1.5 mi North 17.3 mph 25.3 mph 0.02 in Snow Light Snow
9:44 AM 26.6 °F 14.3 °F 24.8 °F 93% 29.41 in 1.8 mi NNW 16.1 mph - 0.00 in Rain Light Freezing Rain
9:51 AM 26.6 °F 14.7 °F 26.6 °F 100% 29.43 in 2.5 mi WNW 15.0 mph - 0.00 in Rain Light Freezing Rain
9:54 AM 27.0 °F 14.7 °F 26.1 °F 96% 29.44 in 2.5 mi NW 16.1 mph - 0.00 in Rain Light Freezing Rain
10:12 AM 24.8 °F 11.5 °F 24.8 °F 100% 29.46 in 2.5 mi NW 17.3 mph - 0.00 in   Light Freezing Drizzle
10:17 AM 23.0 °F 9.6 °F 23.0 °F 100% 29.45 in 5.0 mi NW 16.1 mph 24.2 mph 0.00 in   Light Freezing Drizzle
10:28 AM 23.0 °F 9.2 °F 21.2 °F 93% 29.46 in 2.0 mi NW 17.3 mph 25.3 mph 0.00 in Rain Light Freezing Rain
10:32 AM 23.0 °F 10.1 °F 21.2 °F 93% 29.46 in 1.8 mi NW 15.0 mph 25.3 mph 0.00 in Rain Light Freezing Rain
10:40 AM 23.0 °F 8.0 °F 21.2 °F 93% 29.45 in 2.0 mi NW 20.7 mph 26.5 mph 0.00 in Rain Light Freezing Rain
10:54 AM 23.0 °F 9.6 °F 21.9 °F 96% 29.44 in 3.0 mi NNW 16.1 mph 26.5 mph 0.00 in Rain Light Freezing Rain
11:21 AM 23.0 °F 10.1 °F 21.2 °F 93% 29.43 in 10.0 mi NNW 15.0 mph 24.2 mph 0.00 in   Overcast
11:54 AM 23.0 °F 11.1 °F 21.0 °F 92% 29.44 in 10.0 mi NW 12.7 mph - 0.00 in   Overcast
12:54 PM 24.1 °F 12.5 °F 21.0 °F 88% 29.47 in 6.0 mi WNW 12.7 mph 20.7 mph N/A   Overcast
1:54 PM 25.0 °F 14.2 °F 21.0 °F 85% 29.49 in 9.0 mi WNW 11.5 mph - N/A   Overcast
2:03 PM 24.8 °F 12.9 °F 21.2 °F 86% 29.49 in 9.0 mi WNW 13.8 mph - N/A   Overcast
2:40 PM 28.4 °F 18.0 °F 21.2 °F 74% 29.52 in 10.0 mi WNW 12.7 mph 19.6 mph N/A   Mostly Cloudy
2:54 PM 28.0 °F 19.3 °F 21.9 °F 78% 29.53 in 10.0 mi WNW 9.2 mph - N/A   Mostly Cloudy
3:54 PM 28.9 °F 19.8 °F 24.1 °F 82% 29.56 in 10.0 mi WSW 10.4 mph - N/A   Overcast
4:54 PM 30.0 °F 20.5 °F 23.0 °F 75% 29.61 in 10.0 mi West 11.5 mph - N/A   Scattered Clouds
5:54 PM 30.0 °F 21.1 °F 23.0 °F 75% 29.63 in 10.0 mi West 10.4 mph 20.7 mph N/A   Partly Cloudy
6:54 PM 30.0 °F 19.5 °F 23.0 °F 75% 29.66 in 10.0 mi West 13.8 mph 23.0 mph N/A   Clear
7:54 PM 30.9 °F 20.7 °F 21.9 °F 69% 29.68 in 10.0 mi West 13.8 mph 21.9 mph N/A   Clear
8:54 PM 30.0 °F 17.9 °F 19.9 °F 66% 29.70 in 10.0 mi West 18.4 mph 28.8 mph N/A   Clear
9:54 PM 28.9 °F 17.3 °F 19.0 °F 67% 29.73 in 10.0 mi West 16.1 mph 24.2 mph N/A   Clear
10:54 PM 28.9 °F 16.9 °F 18.0 °F 64% 29.74 in 10.0 mi West 17.3 mph 20.7 mph N/A   Clear
11:54 PM 27.0 °F 15.6 °F 19.0 °F 72% 29.75 in 10.0 mi WSW 13.8 mph - N/A   Clear